#timestamp,LO_Frequency,Hit,StdDev 
1578271335.4,286047009.3,P
1578271355.2,286047010.2,P
1578271375.0,286047010.3,P
1578271375.9,286047010.3,Y
1578271395.8,286046998.1,P
1578271415.6,286047000.5,N
1578271435.4,286046999.7,N
1578271455.3,286047002.6,N
1578271475.1,286046999.7,N
1578271495.9,286047000.2,N
1578271515.7,286046999.7,N
1578271535.5,286047002.3,N
1578271555.4,286047004.3,N
1578271575.2,286047002.5,N
1578271595.0,286047002.2,N
1578271595.9,286047002.2,N
1578271615.8,286047003.8,N
1578271635.6,286047001.7,N
1578271655.5,286047001.8,N
1578271675.3,286047003.5,N
1578271695.1,286047003.7,N
1578271715.9,286047004.4,N
1578271735.7,286047004.4,N
1578271755.5,286047003.6,N
1578271775.4,286047003.2,N
1578271795.2,286047002.9,N
1578271815.1,286047002.9,N
1578271816.0,286047002.9,N
1578271835.8,286047002.9,N
1578271855.6,286047003.6,N
1578271875.5,286047003.6,N
1578271895.3,286047005.6,N
1578271915.1,286047003.1,N
1578271935.9,286047003.3,N
1578271955.7,286047005.9,Y
1578271975.6,286047002.0,P
1578271995.4,286047002.8,P
1578272015.2,286047000.1,N
1578272035.1,286046999.9,N
1578272036.0,286046999.9,N
1578272055.8,286047002.7,N
1578272075.6,286047000.0,N
1578272095.5,286047000.3,N
1578272115.3,286047000.2,N
1578272135.2,286047002.7,N
1578272155.9,286047000.0,N
1578272175.7,286046999.9,N
1578272195.6,286047001.3,N
1578272215.4,286047002.2,N
1578272235.2,286047002.3,N
1578272255.1,286047002.3,N
1578272256.0,286047002.3,N
1578272275.8,286047001.8,N
1578272295.6,286047001.7,N
1578272315.5,286047001.7,N
1578272335.3,286047001.8,N
1578272355.2,286047001.4,N
1578272375.9,286047004.1,Y
1578272395.7,286047001.8,P
